Temperature
22 20 22 21 21 21 20 20 20 20 20 20 20 20 20 20 20 20 20 19 19 19 19 18 18 18 18 18 18 18 18 18 18 18 18 18 17 17 17 17 17 16 17
22 21 22 21 21 21 20 20 20 20 20 20 20 20 20 20 20 20 19 19 19 19 19 18 18 18 18 19 19 19 19 18 18 18 18 17 17 17 17 17 17 17 17
21 21 22 21 21 21 20 20 20 20 20 20 20 20 20 20 20 20 19 19 19 19 19 19 19 19 19 19 19 19 19 18 18 18 17 17 17 17 17 17 17 17 17
21 21 21 21 21 21 20 20 20 20 20 20 20 20 20 20 20 20 20 19 19 19 19 19 19 19 19 19 19 19 19 19 18 18 17 17 17 18 18 17 17 17 17
21 20 21 21 21 21 21 20 20 20 20 20 20 20 20 20 20 20 20 19 19 19 19 19 19 19 20 19 19 19 19 19 19 18 17 17 17 18 18 17 17 17 17
20 20 21 21 21 20 20 20 20 20 20 20 20 20 20 20 20 20 20 19 19 19 19 20 20 20 20 19 19 19 19 19 18 18 17 17 17 18 18 18 17 17 17
21 20 20 21 20 20 20 20 20 20 20 20 20 20 20 20 20 20 20 19 19 19 19 19 19 19 19 19 19 19 19 19 17 18 17 17 17 18 18 18 18 18 17
21 20 19 20 20 20 20 20 20 20 20 20 20 20 20 20 20 20 19 19 19 19 19 19 19 19 19 19 19 19 19 19 18 18 17 18 17 18 18 18 18 18 18
21 20 19 19 19 20 20 20 20 20 20 20 20 20 20 20 19 19 19 19 19 19 19 19 19 19 19 19 19 19 19 19 17 18 18 18 18 18 18 18 18 18 18
20 20 19 18 18 18 19 19 20 20 20 20 20 20 20 20 20 19 19 19 19 19 19 19 19 19 19 19 19 19 18 18 18 18 18 18 18 18 18 18 18 18 18
20 19 19 19 18 18 18 19 19 20 20 20 20 20 20 19 19 19 19 19 19 19 19 19 19 19 18 18 18 18 18 17 18 18 18 18 18 18 18 18 18 17 17
19 19 19 19 18 18 18 18 18 18 19 19 19 19 19 18 18 18 18 19 19 19 19 19 18 18 18 17 18 18 18 17 18 19 18 18 18 18 18 18 18 18 17
20 19 19 19 19 18 18 18 19 18 18 18 18 18 18 18 18 18 18 18 19 19 18 18 18 18 17 18 18 18 18 18 18 19 19 18 18 18 18 18 18 18 17
20 19 19 19 18 19 19 19 18 18 18 18 18 18 18 18 18 18 18 18 18 18 17 18 18 18 18 18 17 18 18 18 18 18 18 18 18 18 18 18 18 18 18
19 19 19 19 18 19 19 19 19 18 18 18 18 18 17 17 18 18 18 18 18 18 18 17 17 17 17 17 17 17 17 18 18 18 18 18 18 18 18 18 18 18 18
18 18 18 18 18 19 19 19 19 18 18 18 17 17 17 17 17 17 17 17 18 18 18 17 17 17 17 17 17 17 17 18 17 17 18 18 18 18 18 18 18 18 18
18 18 17 18 18 18 18 17 17 17 17 17 17 17 17 17 17 17 17 17 17 17 17 17 17 17 17 17 17 17 17 17 17 17 17 17 18 18 18 18 18 18 18
17 17 17 17 17 17 17 17 17 17 17 17 17 17 17 17 17 17 17 17 17 17 17 17 17 17 17 17 17 17 17 17 17 17 17 17 17 18 18 18 18 18 18
17 17 17 17 17 17 17 17 17 17 17 16 16 16 16 16 16 16 16 17 17 17 17 17 17 17 17 17 17 17 17 17 17 17 17 17 17 17 17 17 17 18 18
16 16 17 17 17 17 16 16 16 16 16 16 16 16 16 16 16 16 16 16 16 16 16 17 17 16 17 17 17 18 17 17 17 17 17 17 17 17 17 17 17 17 18
16 16 16 17 16 16 16 16 16 16 16 16 16 16 16 16 16 16 16 16 16 16 16 16 16 16 16 16 17 17 17 17 17 17 17 17 18 17 17 17 17 17 17
16 16 16 16 16 16 16 16 16 16 15 15 15 15 15 15 15 15 15 15 15 16 16 16 16 16 16 16 17 18 19 19 17 17 17 16 17 17 17 17 16 16 17
16 16 16 16 16 16 16 16 15 15 15 15 15 15 15 15 15 15 15 15 15 15 15 16 16 16 16 16 16 17 19 20 20 18 17 17 16 16 17 17 16 16 16
16 16 16 16 16 16 15 15 15 15 15 15 14 14 14 15 15 15 15 15 15 15 15 15 15 15 15 16 16 16 17 18 18 19 17 17 16 16 16 16 17 16 16
16 16 15 15 15 15 15 15 15 15 15 15 14 14 14 14 14 14 14 14 14 14 15 15 15 15 15 16 16 16 16 16 16 17 19 18 17 17 16 16 16 16 16
16 15 15 15 14 15 14 14 14 14 14 14 13 14 14 14 13 13 13 14 14 14 14 15 15 15 15 15 16 16 16 17 17 17 18 17 17 17 16 16 16 16 16
Wind_Speed
15 21 24 20 17 16 15 15 15 17 18 17 17 17 16 16 15 14 13 12 11 10 9 9 9 9 9 9 10 10 10 10 10 10 11 11 11 11 11 10 9 13 14
18 23 24 20 18 16 15 15 15 16 16 17 16 16 16 15 14 14 13 12 11 9 9 8 8 8 8 9 10 10 10 9 10 10 11 11 10 10 10 6 4 13 12
21 23 23 20 19 17 16 15 15 15 15 16 16 15 15 14 14 13 12 11 10 9 8 8 8 8 8 8 9 9 9 8 8 9 9 9 11 9 9 7 10 13 11
20 22 21 21 19 17 16 15 15 14 15 15 15 14 14 13 13 12 11 11 10 9 8 8 7 7 8 8 8 8 8 8 7 8 8 7 9 11 8 8 10 10 10
19 19 21 22 19 18 16 15 15 14 14 14 14 13 13 12 12 12 11 10 10 9 9 8 8 7 8 8 8 8 8 7 7 9 5 6 7 12 9 9 9 10 10
19 19 21 21 19 18 16 15 15 14 13 13 13 12 12 12 11 11 11 10 10 9 8 8 8 8 8 8 8 8 8 8 9 7 6 6 7 11 9 9 9 9 10
18 17 21 20 19 17 16 15 14 14 13 13 12 12 12 11 11 11 11 10 9 9 9 8 8 8 8 8 8 9 9 9 10 6 6 6 6 11 9 10 10 10 10
17 16 19 19 18 17 16 15 14 14 13 13 12 12 11 11 11 10 10 10 10 9 9 9 9 9 9 9 9 9 9 11 12 9 8 7 8 9 9 11 12 12 12
15 14 16 17 16 15 14 14 14 13 13 12 12 11 11 10 10 10 10 10 11 11 10 10 10 10 11 11 11 11 11 12 13 10 10 9 12 11 11 12 14 15 15
14 13 13 14 14 14 14 14 13 13 13 12 12 12 12 12 12 12 12 13 12 12 12 12 12 12 12 13 13 13 12 12 16 14 11 9 13 12 13 14 16 17 17
12 12 12 12 12 12 12 13 14 14 14 14 14 15 14 14 15 15 17 14 14 14 14 14 14 14 14 16 16 15 14 14 15 14 11 10 14 13 14 14 16 18 19
14 13 12 11 11 11 9 10 11 12 13 14 13 14 15 14 13 13 11 13 15 16 16 16 16 16 17 15 18 19 15 16 15 13 11 12 13 14 15 16 16 18 20
15 14 13 12 11 10 8 8 7 8 8 12 14 13 13 12 12 12 11 12 15 17 16 16 17 16 16 14 11 13 14 14 12 12 11 16 16 16 17 17 17 18 20
14 13 12 11 10 9 8 6 6 7 6 8 10 13 13 10 10 10 10 11 11 11 12 12 11 14 14 14 14 13 14 13 12 11 9 15 16 17 18 18 19 19 20
11 11 10 9 8 7 7 6 6 6 7 10 10 12 14 11 11 11 9 10 12 12 11 11 12 12 12 13 13 14 14 15 14 13 10 13 16 18 18 18 19 20 21
7 7 7 7 6 5 5 5 5 7 8 11 11 13 14 14 11 12 11 11 11 13 13 11 12 11 11 10 12 13 14 14 13 14 14 13 18 18 18 18 19 19 21
3 3 3 3 3 3 5 6 7 8 10 10 11 13 15 16 13 12 11 11 11 13 12 11 12 11 11 11 12 13 12 12 12 13 14 13 13 18 20 19 19 19 20
4 2 1 1 2 4 5 6 7 8 10 10 11 12 14 15 15 12 12 11 10 10 9 10 10 10 10 10 9 10 10 9 12 12 13 13 12 12 16 21 19 19 20
5 3 2 2 3 4 5 6 7 7 8 9 10 10 11 13 14 11 9 8 9 8 9 10 9 9 10 9 9 9 10 9 10 11 12 12 13 12 12 14 19 18 19
4 3 2 2 3 4 5 5 6 7 7 6 6 7 9 9 10 8 7 8 9 8 8 9 9 8 8 8 9 9 8 9 9 10 11 11 12 13 14 13 12 16 21
4 3 3 3 3 4 4 5 6 6 6 5 5 6 7 7 7 6 6 6 6 7 8 9 9 10 9 7 7 8 9 10 10 9 10 10 11 11 11 11 11 11 12
4 4 3 2 3 4 4 5 5 6 6 5 5 5 6 6 6 5 5 5 6 6 8 9 9 8 8 7 7 7 7 8 8 9 8 9 9 8 9 10 10 10 11
4 3 3 3 4 5 6 5 5 5 5 5 6 5 6 6 5 5 5 6 5 6 7 8 8 9 8 7 8 7 6 6 4 6 7 7 6 6 7 6 8 9 10
2 2 3 4 5 5 6 6 8 8 8 8 6 6 6 5 5 5 5 6 6 6 6 7 7 7 9 8 7 8 8 5 5 4 7 8 8 7 7 6 6 6 8
4 4 5 6 7 7 7 7 8 9 9 8 7 6 6 5 4 4 5 5 5 5 6 7 6 8 8 9 8 8 8 7 8 7 5 6 7 7 6 6 5 5 5
6 7 8 8 9 9 9 9 10 11 11 11 10 9 7 6 4 4 4 4 5 5 6 6 7 9 9 10 9 9 8 8 9 8 7 7 6 5 5 4 4 4 3
Wind_Direction
159 151 150 158 159 159 157 156 157 160 163 163 161 158 156 155 154 153 152 150 147 143 137 128 123 123 122 120 120 119 119 120 121 120 118 115 114 117 120 129 143 115 112
152 149 151 157 159 160 158 155 155 157 161 162 161 159 157 156 155 155 155 155 154 151 144 134 129 125 124 124 124 125 127 130 132 131 132 128 122 121 125 129 68 111 123
149 148 154 157 159 160 159 157 156 157 160 162 162 160 158 157 157 157 158 159 159 156 150 143 137 132 129 129 130 133 135 139 142 146 171 150 130 129 128 121 106 121 129
150 151 157 156 160 161 161 160 159 159 160 161 163 163 162 160 160 161 162 163 164 160 155 152 147 142 139 139 140 142 144 148 151 178 183 139 140 134 141 136 134 138 138
150 152 152 157 161 162 163 163 163 163 164 165 166 167 166 166 166 167 167 169 167 164 162 162 159 155 153 152 153 154 157 159 169 216 143 143 133 136 154 154 152 152 152
152 156 152 161 162 164 166 167 167 167 168 169 171 172 172 174 175 176 175 174 172 172 172 174 173 170 169 168 169 170 172 176 201 192 160 175 146 147 166 169 170 168 166
156 157 155 163 164 166 168 170 171 172 173 175 177 179 180 181 183 185 185 183 184 185 186 186 187 184 184 186 186 187 191 200 227 198 190 197 148 148 179 183 185 185 182
158 158 153 163 166 168 171 173 176 178 180 182 184 186 189 190 193 196 197 196 197 198 200 201 201 199 199 201 202 203 207 222 227 221 216 212 151 167 196 201 198 197 196
161 158 158 167 170 172 175 177 180 183 186 189 192 195 198 201 205 209 210 211 211 211 212 213 214 213 212 212 212 214 217 229 249 233 224 220 163 187 210 216 211 206 203
163 163 163 170 172 178 180 182 186 190 194 197 201 204 207 211 215 218 222 216 222 223 222 222 223 223 222 221 220 220 222 228 240 241 228 207 164 196 216 222 218 211 208
167 168 171 171 175 184 188 180 190 196 202 205 208 210 214 220 219 214 223 215 221 229 230 230 229 229 229 226 226 224 223 234 233 240 234 176 171 203 221 228 224 216 211
172 175 176 179 177 189 194 187 204 208 204 215 219 214 217 224 230 232 209 212 226 233 236 236 237 236 234 233 219 215 228 230 242 236 225 172 189 213 224 230 231 223 216
175 181 182 184 184 194 199 205 213 222 220 224 229 228 232 234 231 231 229 216 224 230 235 230 230 234 233 234 235 218 228 236 234 240 224 178 199 217 226 230 232 228 222
179 184 188 186 193 204 215 222 229 234 235 242 235 236 236 235 238 235 233 235 229 228 231 239 235 234 239 239 236 238 234 235 239 240 229 183 203 218 226 230 229 228 225
182 187 190 190 196 208 219 238 244 251 258 254 255 246 248 245 241 240 237 238 242 239 232 234 242 242 242 242 241 239 242 239 241 241 236 199 211 222 228 230 229 228 226
182 187 192 199 206 223 240 249 255 264 262 266 263 257 253 254 250 246 243 241 242 243 243 242 242 243 243 244 246 244 242 243 238 240 244 222 208 217 225 229 230 229 228
144 168 196 208 228 260 278 282 277 276 275 272 269 262 257 254 254 251 248 244 245 245 242 243 247 246 243 242 244 246 244 243 241 238 243 246 233 214 215 222 227 229 229
63 63 11 297 288 288 291 288 284 284 283 278 274 268 261 259 258 256 253 251 250 245 239 240 241 241 240 241 244 244 242 239 240 240 242 239 244 245 218 211 218 226 229
52 37 17 339 313 296 288 280 279 278 280 282 281 279 276 272 264 259 255 259 256 246 239 243 237 237 239 236 241 237 242 241 243 242 242 245 242 242 248 209 206 220 227
57 43 27 2 338 311 300 288 285 287 291 289 289 290 289 286 278 270 261 257 252 243 237 235 239 236 246 242 247 247 240 240 238 240 243 243 244 243 243 244 226 220 218
64 54 30 5 346 325 323 316 315 311 308 303 299 305 302 298 293 283 275 265 254 245 239 235 233 229 233 233 240 242 237 235 239 244 243 247 240 238 244 245 247 248 223
62 44 30 5 356 336 342 321 314 316 313 315 309 309 314 314 313 300 290 281 264 253 241 235 230 236 231 216 232 245 242 224 220 230 226 227 236 230 232 233 238 244 255
59 36 20 359 344 344 335 325 325 313 307 319 321 319 329 332 332 320 296 279 264 255 245 236 227 229 234 223 225 241 246 243 205 195 213 219 219 229 237 237 236 240 241
33 8 351 338 337 335 326 333 332 328 329 330 322 323 323 329 331 328 310 291 268 254 251 244 237 236 237 233 219 234 255 292 263 209 198 201 211 224 243 251 249 240 240
332 331 329 329 325 324 321 314 308 312 318 317 316 310 305 305 308 317 317 308 294 274 260 249 247 239 235 239 233 220 221 226 239 260 227 199 206 218 222 234 246 251 245
317 319 321 322 318 315 310 307 301 302 302 303 301 300 293 293 291 291 293 296 292 288 277 265 249 240 242 243 246 237 223 219 220 225 233 227 224 218 220 234 236 228 228
Height
1510 1512 1514 1518 1521 1524 1527 1530 1533 1535 1537 1539 1540 1542 1543 1545 1546 1547 1548 1549 1551 1552 1553 1554 1555 1556 1557 1557 1558 1558 1559 1559 1559 1560 1560 1561 1562 1562 1563 1564 1565 1566 1565
1509 1512 1515 1518 1522 1525 1528 1530 1533 1535 1538 1540 1541 1543 1544 1546 1547 1548 1549 1550 1552 1553 1554 1555 1556 1557 1558 1558 1559 1559 1560 1560 1561 1561 1562 1563 1563 1564 1565 1566 1567 1568 1567
1510 1512 1515 1519 1522 1525 1528 1531 1533 1536 1538 1540 1542 1544 1545 1546 1548 1549 1550 1551 1552 1553 1555 1556 1557 1557 1558 1559 1560 1560 1561 1562 1562 1563 1564 1567 1566 1565 1566 1567 1568 1568 1569
1511 1514 1517 1520 1523 1526 1529 1532 1534 1536 1538 1540 1542 1544 1546 1547 1548 1549 1550 1552 1553 1554 1555 1556 1557 1558 1559 1560 1561 1561 1562 1563 1563 1564 1567 1569 1569 1567 1567 1568 1569 1570 1571
1513 1516 1518 1521 1524 1527 1530 1532 1535 1537 1539 1541 1543 1544 1546 1547 1548 1549 1551 1552 1553 1554 1556 1557 1558 1559 1560 1560 1561 1562 1563 1564 1565 1566 1569 1570 1570 1568 1568 1569 1570 1571 1572
1515 1518 1519 1522 1525 1528 1531 1533 1536 1538 1540 1541 1543 1544 1546 1547 1548 1550 1551 1552 1553 1554 1556 1557 1558 1559 1560 1561 1562 1562 1563 1564 1565 1569 1570 1570 1570 1569 1569 1570 1571 1572 1573
1517 1521 1521 1524 1526 1529 1532 1534 1536 1538 1540 1541 1543 1544 1546 1547 1548 1549 1551 1552 1553 1554 1556 1557 1558 1559 1560 1561 1561 1562 1563 1564 1566 1569 1569 1570 1570 1569 1569 1570 1571 1572 1573
1520 1523 1523 1525 1527 1530 1532 1535 1536 1538 1540 1541 1543 1544 1545 1547 1548 1549 1550 1551 1552 1554 1555 1556 1557 1558 1559 1559 1560 1561 1562 1563 1566 1568 1568 1569 1568 1568 1569 1570 1571 1572 1573
1522 1524 1525 1527 1529 1531 1533 1535 1537 1538 1540 1541 1543 1544 1545 1546 1547 1548 1549 1550 1551 1552 1553 1554 1555 1556 1557 1558 1558 1559 1560 1561 1563 1567 1567 1567 1566 1567 1568 1569 1570 1571 1573
1523 1526 1527 1529 1530 1532 1534 1535 1537 1538 1540 1541 1542 1543 1544 1545 1546 1547 1548 1549 1550 1551 1551 1552 1553 1554 1555 1555 1556 1557 1558 1559 1560 1564 1564 1564 1563 1565 1566 1568 1569 1570 1571
1523 1525 1527 1529 1531 1533 1535 1535 1536 1538 1539 1540 1541 1541 1542 1543 1545 1545 1546 1546 1547 1548 1549 1550 1551 1551 1552 1552 1553 1554 1555 1557 1559 1561 1561 1561 1560 1562 1563 1565 1567 1568 1569
1520 1523 1525 1528 1529 1532 1534 1535 1536 1538 1538 1538 1540 1540 1541 1542 1543 1544 1544 1543 1544 1545 1546 1547 1547 1548 1548 1550 1551 1551 1552 1554 1556 1557 1557 1556 1557 1558 1560 1562 1563 1565 1567
1519 1521 1524 1526 1528 1530 1532 1534 1536 1537 1537 1537 1538 1538 1539 1539 1539 1540 1541 1541 1541 1542 1543 1544 1544 1545 1546 1547 1548 1548 1549 1551 1552 1553 1553 1551 1553 1554 1556 1558 1560 1562 1563
1518 1520 1523 1525 1527 1529 1531 1533 1533 1534 1534 1535 1535 1534 1535 1535 1535 1536 1536 1538 1538 1538 1539 1540 1540 1541 1541 1542 1543 1544 1545 1546 1547 1548 1548 1547 1549 1550 1551 1553 1555 1557 1559
1519 1521 1523 1524 1525 1527 1528 1529 1530 1530 1530 1531 1530 1530 1531 1531 1531 1532 1531 1531 1533 1534 1534 1534 1535 1536 1536 1537 1538 1539 1539 1541 1542 1543 1544 1543 1544 1546 1547 1549 1551 1552 1554
1519 1520 1522 1522 1523 1525 1526 1525 1526 1526 1526 1526 1526 1526 1525 1525 1525 1525 1525 1526 1526 1528 1529 1530 1530 1530 1531 1532 1532 1533 1534 1536 1536 1537 1539 1539 1539 1541 1542 1544 1546 1547 1549
1518 1519 1520 1521 1522 1522 1522 1523 1524 1523 1523 1522 1521 1520 1519 1518 1519 1519 1519 1520 1521 1522 1523 1523 1524 1525 1525 1526 1527 1528 1529 1530 1531 1531 1533 1535 1536 1536 1537 1539 1540 1542 1544
1517 1518 1519 1520 1520 1520 1520 1520 1520 1519 1518 1517 1516 1514 1513 1512 1512 1512 1512 1513 1514 1515 1516 1517 1518 1520 1520 1521 1522 1523 1524 1525 1525 1527 1529 1530 1531 1533 1533 1533 1535 1536 1538
1518 1518 1518 1519 1519 1519 1518 1517 1516 1515 1513 1512 1510 1508 1507 1506 1505 1505 1505 1506 1506 1508 1509 1511 1513 1514 1516 1516 1518 1519 1520 1521 1521 1523 1524 1525 1527 1527 1529 1529 1529 1530 1532
1518 1518 1518 1518 1518 1517 1516 1514 1514 1513 1511 1508 1506 1504 1501 1499 1498 1497 1498 1499 1500 1501 1502 1505 1507 1509 1511 1512 1514 1515 1516 1517 1517 1519 1519 1521 1522 1523 1524 1525 1525 1526 1526
1519 1518 1518 1518 1517 1516 1515 1514 1513 1511 1508 1506 1503 1500 1497 1495 1493 1492 1492 1494 1494 1496 1497 1500 1502 1505 1506 1508 1510 1511 1512 1512 1513 1514 1515 1516 1517 1518 1519 1520 1521 1522 1523
1520 1519 1518 1518 1517 1515 1514 1512 1511 1508 1506 1504 1501 1498 1495 1493 1490 1489 1489 1489 1489 1491 1493 1496 1498 1501 1503 1504 1506 1508 1508 1509 1508 1509 1510 1511 1513 1514 1515 1516 1516 1517 1518
1520 1519 1519 1517 1516 1515 1513 1512 1510 1507 1505 1503 1499 1496 1493 1491 1489 1487 1486 1486 1486 1488 1490 1492 1494 1495 1499 1500 1502 1505 1505 1504 1504 1506 1507 1508 1509 1510 1511 1512 1513 1513 1513
1521 1519 1518 1516 1515 1513 1511 1510 1508 1507 1504 1501 1498 1495 1491 1489 1487 1485 1484 1484 1483 1485 1486 1488 1489 1492 1494 1496 1498 1500 1502 1502 1503 1503 1504 1505 1505 1506 1507 1508 1509 1509 1509
1520 1519 1517 1514 1512 1510 1508 1507 1505 1504 1502 1499 1496 1493 1490 1487 1485 1483 1482 1481 1481 1481 1483 1484 1486 1487 1490 1492 1495 1497 1498 1499 1500 1501 1500 1502 1503 1504 1504 1504 1505 1505 1506
1519 1517 1515 1512 1510 1507 1505 1503 1501 1499 1497 1495 1492 1490 1488 1486 1483 1481 1479 1478 1478 1477 1478 1479 1481 1482 1484 1487 1490 1492 1494 1495 1496 1497 1498 1499 1500 1501 1501 1501 1501 1502 1502